#timestamp,LO_Frequency,Hit,StdDev 
1711821615.0,286047004.1,N
1711821615.9,286047004.1,N
1711821635.8,286047004.0,N
1711821655.6,286047003.5,N
1711821675.5,286047004.3,Y
1711821695.3,286047001.1,P
1711821715.1,286046998.1,N
1711821735.9,286046997.3,N
1711821755.7,286046997.5,N
1711821775.5,286047001.0,N
1711821795.4,286046998.8,N
1711821815.2,286046999.2,N
1711821835.0,286046996.6,N
1711821836.0,286046996.6,N
1711821855.8,286046998.7,N
1711821875.6,286046998.9,N
1711821895.5,286046996.8,N
1711821915.3,286046999.1,N
1711821935.1,286046997.5,N
1711821955.9,286046999.6,N
1711821975.7,286047001.1,N
1711821995.5,286047001.2,N
1711822015.4,286047001.7,N
1711822035.2,286047001.7,N
1711822055.1,286047001.9,N
1711822056.0,286047001.9,N
1711822075.8,286047003.5,N
1711822095.6,286047004.0,N
1711822115.5,286047005.1,N
1711822135.3,286047008.3,Y
1711822155.1,286047007.7,P
1711822175.9,286047008.4,N
1711822195.7,286047009.1,N
1711822215.6,286047008.8,N
1711822235.4,286047007.3,N
1711822255.2,286047008.9,N
1711822275.1,286047010.8,Y
1711822276.0,286047010.8,P
1711822295.8,286047004.1,N
1711822315.7,286047001.5,N
1711822335.5,286047003.0,N
1711822355.3,286047004.4,N
1711822375.2,286047004.8,N
1711822395.0,286047004.6,N
1711822395.9,286047004.6,N
1711822415.7,286047004.8,N
1711822435.6,286047009.0,Y
1711822455.4,286047003.2,P
1711822475.3,286047001.5,N
1711822495.1,286047001.9,N
1711822496.0,286047001.9,N
1711822515.8,286047004.0,Y
1711822535.7,286047001.4,P
1711822555.5,286047000.2,N
1711822575.4,286046999.7,N
1711822595.2,286047005.5,Y
1711822615.0,286047003.8,P
1711822615.9,286047003.8,N
1711822635.8,286047007.2,P
1711822655.6,286047005.4,N
1711822675.5,286047005.7,N
1711822695.3,286047007.6,Y
1711822715.1,286047002.2,P
1711822735.9,286046998.4,N
1711822755.7,286047000.7,N
1711822775.6,286047000.3,N
1711822795.4,286047002.2,N
1711822815.2,286047004.3,N
1711822835.1,286047002.5,N
1711822836.0,286047002.5,N
1711822855.8,286047005.6,Y
1711822875.7,286046999.8,P
1711822895.5,286047004.1,P
1711822915.3,286047002.4,N
1711822935.2,286047003.8,N
1711822955.0,286047004.4,N
1711822955.9,286047004.4,N
1711822975.7,286047001.7,N
1711822995.6,286047004.3,N
1711823015.4,286047000.0,N
1711823035.3,286047000.4,N
1711823055.1,286047002.6,N
1711823056.0,286047002.6,N
1711823075.8,286047002.0,N
1711823095.7,286047004.2,N
1711823115.5,286047001.4,N
1711823135.3,286047002.6,N
1711823155.2,286047004.8,Y
1711823175.0,286047003.0,P
1711823175.9,286047003.0,P
1711823195.8,286047005.2,P
1711823215.6,286047002.7,N
1711823235.4,286047000.3,N
1711823255.3,286047000.9,N
1711823275.1,286047002.5,N
1711823295.9,286047002.5,N
1711823315.7,286047003.6,N
1711823335.5,286047001.9,N
1711823355.4,286047005.9,Y
1711823375.2,286046999.8,P
1711823395.0,286047004.4,P
1711823395.9,286047004.4,N
1711823415.8,286047001.5,N
1711823435.6,286047004.3,N
1711823455.5,286047001.6,N
1711823475.3,286047001.7,N
1711823495.1,286047001.6,N
1711823515.9,286047004.3,N
1711823535.7,286047002.7,N
1711823555.5,286047002.6,N
1711823575.4,286047002.1,N
1711823595.2,286047004.0,N
1711823615.1,286047005.4,Y
1711823616.0,286047005.4,P
1711823635.8,286047002.8,N
1711823655.6,286047001.5,N
1711823675.5,286047003.1,N
1711823695.3,286047003.6,N
1711823715.2,286047003.2,N
1711823735.9,286047003.6,Y
1711823755.7,286047002.2,P
1711823775.6,286047000.1,N
1711823795.4,286047000.0,N
1711823815.3,286047000.4,N
1711823835.1,286047002.8,N
1711823836.0,286047002.8,N
1711823855.8,286047002.3,N
1711823875.7,286047004.0,Y
1711823895.5,286047002.6,P
1711823915.3,286047001.6,P
1711823935.2,286047001.8,P
1711823955.0,286047001.3,Y
1711823955.9,286047001.3,P
1711823975.8,286047000.2,N
1711823995.6,286047001.0,N
1711824015.4,286047002.6,Y
1711824035.3,286047002.3,P
1711824055.1,286047000.8,N
1711824075.9,286047000.3,N
1711824095.7,286047000.1,N
1711824115.6,286046999.9,N
1711824135.4,286047000.5,N
1711824155.2,286047000.4,N
1711824175.1,286047004.0,Y
1711824176.0,286047004.0,P
1711824195.8,286047003.6,N
1711824215.6,286047004.1,N
1711824235.5,286047004.1,N
1711824255.3,286047004.1,Y
1711824275.2,286047002.6,P
1711824295.0,286047001.6,P
1711824295.9,286047001.6,N
1711824315.8,286047003.3,Y
1711824335.6,286047001.5,P
1711824355.4,286047003.5,P
1711824375.3,286047003.4,P
1711824395.1,286047006.0,Y
1711824415.9,286047002.1,P
1711824435.7,286047001.5,P
1711824455.5,286047003.8,P
1711824475.4,286047004.2,Y
1711824495.2,286046999.9,P
1711824515.0,286046999.8,N
1711824515.9,286046999.8,N
1711824535.8,286047002.0,N
1711824555.6,286047001.5,N
1711824575.5,286047001.6,N
1711824595.3,286047001.7,N
1711824615.1,286047001.8,N
1711824635.9,286047001.3,N
1711824655.7,286047001.9,N
1711824675.5,286047003.9,Y
1711824695.4,286047001.4,P
1711824715.2,286047004.1,P
1711824735.1,286047003.8,N
1711824736.0,286047003.8,N
1711824755.8,286047007.4,Y
1711824775.6,286047007.2,P
1711824795.5,286047006.5,N
1711824815.3,286047009.1,P
1711824835.2,286047006.1,N
1711824855.9,286047006.1,N
1711824875.7,286047006.8,Y
1711824895.6,286047004.2,P
1711824915.4,286047001.5,N
1711824935.2,286047002.1,N
1711824955.1,286047002.8,N
1711824956.0,286047002.8,N
1711824975.8,286046999.9,N
1711824995.7,286046999.7,N
1711825015.5,286047001.7,N
1711825035.3,286047003.1,N
1711825055.2,286047003.7,N
1711825075.0,286047006.4,Y
1711825075.9,286047006.4,P
1711825095.8,286047007.3,P
1711825115.6,286047006.1,N
1711825135.4,286047005.1,N
1711825155.3,286047005.4,Y
1711825175.1,286047011.9,P
1711825195.8,286047000.1,N
